[[{"header":{"parameterUnit":"m.s-1","parameterCategory":1,"la1":30.2992,"la2":30.254,"lo1":-89.0895,"lo2":-89.0443,"dy":0.0025,"dx":0.0025,"nx":19,"ny":19,"refTime":"2026-03-24T21:00:00:Z","depth":0,"parameterNumber":2,"parameterNumberName":"U-component_of_WINDS"},"data":[0,0,0,-3.3818,-3.3822,-3.3975,-3.3976,-3.4174,-3.4176,0,0,0,0,0,0,0,0,0,0,0,-3.3773,-3.3774,-3.3818,-3.3822,-3.3975,-3.3976,-3.4174,-3.4176,0,0,0,0,0,0,0,0,0,0,0,-3.3772,-3.3774,-3.3776,-3.3822,-3.3975,-3.3976,-3.4174,-3.4057,0,0,0,0,0,0,0,0,0,0,-3.3908,-3.3866,-3.3773,-3.3776,-3.3823,-3.3975,-3.3976,-3.4052,-3.4065,-3.4106,0,-3.4141,0,-3.4162,-3.419,-3.419,0,0,0,-3.3822,-3.3855,-3.3896,-3.3776,-3.3825,-3.3975,-3.3906,-3.4059,-3.4074,-3.4123,-3.4143,-3.4151,-3.4165,-3.4191,-3.4192,-3.4423,-3.4424,0,0,-3.3814,-3.3801,-3.3886,-3.3906,-3.3881,-3.3901,-3.3911,-3.4068,-3.409,-3.4144,-3.4155,-3.4168,-3.4192,-3.4194,-3.4422,-3.4424,0,0,0,-3.3789,-3.3795,-3.3832,-3.3898,-3.3925,-3.3906,-3.3917,-3.4083,-3.4096,-3.4158,-3.417,-3.4193,-3.4196,-3.4421,-3.4423,-3.4461,0,0,0,-3.3784,-3.378,-3.3829,-3.3822,-3.3922,-3.4006,-3.3929,-3.4085,-3.4104,-3.4169,-3.4193,-3.4198,-3.442,-3.4422,-3.4457,-3.4481,0,0,0,-3.3763,-3.3778,-3.38,-3.3821,-3.3887,-3.4003,-3.4026,-3.409,-3.4112,-3.419,-3.4198,-3.4419,-3.4422,-3.4454,-3.4476,-3.4537,0,0,0,-3.3737,-3.3833,-3.38,-3.3913,-3.3885,-3.4026,-3.4025,-3.4131,-3.4203,-3.4194,-3.442,-3.4423,-3.4453,-3.4473,-3.4533,-3.4585,-3.4605,0,0,-3.3851,-3.3846,-3.3914,-3.3889,-3.4032,-3.4004,-3.4154,-3.4233,-3.4253,-3.4366,-3.4372,-3.4459,-3.4475,-3.4536,-3.4728,-3.4744,0,0,0,-3.3945,-3.3993,-3.4034,-3.4102,-3.4165,-3.422,-3.4278,-3.4308,-3.4404,-3.4308,-3.4499,-3.4509,-3.4545,-3.457,-3.4584,-3.4616,-3.4434,-3.4434,-3.4434,-3.4087,-3.4107,-3.422,-3.4259,-3.4325,-3.4384,-3.444,-3.449,-3.4492,-3.4537,-3.4569,-3.4683,-3.4712,-3.4722,-3.4755,-3.46,-3.46,-3.46,-3.46,-3.4255,-3.4325,-3.4326,-3.4435,-3.4457,-3.4549,-3.4611,-3.4609,-3.4699,-3.466,-3.4693,-3.4646,-3.4739,-3.4769,-3.4604,-3.4603,-3.4603,-3.4602,-3.4602,-3.4348,-3.4385,-3.4419,-3.4519,-3.4595,-3.4633,-3.4719,-3.4736,-3.4753,-3.4786,-3.4822,-3.4822,-3.4822,-3.4803,-3.4803,-3.4803,-3.4804,-3.4804,-3.4804,-3.443,-3.4467,-3.4537,-3.4612,-3.4658,-3.4721,-3.4782,-3.4829,-3.4885,-3.4891,-3.4891,-3.4888,-3.4745,-3.4707,-3.481,-3.4809,-3.4808,-3.4808,-3.4807,-3.4589,-3.4556,-3.4663,-3.4709,-3.4799,-3.4873,-3.4895,-3.4988,-3.5029,-3.5071,-3.5062,-3.4954,-3.4951,-3.494,-3.4909,-3.5058,-3.5058,-3.5058,-3.5058,-3.4666,-3.4666,-3.4779,-3.4852,-3.4925,-3.4956,-3.5078,-3.5128,-3.5175,-3.5202,-3.5183,-3.5145,-3.5133,-3.5137,-3.5122,-3.5093,-3.5285,-3.5285,-3.5285,-3.4764,-3.4772,-3.4871,-3.4915,-3.4987,-3.5049,-3.5164,-3.5249,-3.5295,-3.5295,-3.5223,-3.5213,-3.5151,-3.513,-3.5125,-3.5101,-3.5049,0,0]},{"header":{"parameterUnit":"m.s-1","parameterCategory":1,"la1":30.2992,"la2":30.254,"lo1":-89.0895,"lo2":-89.0443,"dy":0.0025,"dx":0.0025,"nx":19,"ny":19,"refTime":"2026-03-24T21:00:00:Z","depth":0,"parameterNumber":3,"parameterNumberName":"V-component_of_WINDS"},"data":[0,0,0,2.5433,2.5434,2.5438,2.5438,2.545,2.545,0,0,0,0,0,0,0,0,0,0,0,2.5436,2.5436,2.5433,2.5434,2.5438,2.5438,2.545,2.545,0,0,0,0,0,0,0,0,0,0,0,2.5436,2.5436,2.5437,2.5434,2.5438,2.5438,2.545,2.5444,0,0,0,0,0,0,0,0,0,0,2.5439,2.5445,2.5436,2.5437,2.5434,2.5438,2.5438,2.5444,2.5444,2.545,0,2.5457,0,2.5454,2.5451,2.5451,0,0,0,2.543,2.5444,2.5442,2.5437,2.5434,2.5438,2.5435,2.5444,2.5445,2.5451,2.5457,2.5458,2.5454,2.5451,2.5451,2.5499,2.55,0,0,2.543,2.5439,2.5442,2.5443,2.5443,2.5435,2.5435,2.5444,2.5451,2.5457,2.5458,2.5454,2.5451,2.5452,2.5499,2.5499,0,0,0,2.5432,2.5439,2.5436,2.5443,2.5443,2.5435,2.5436,2.5451,2.5449,2.5458,2.5455,2.5451,2.5452,2.5499,2.5499,2.5527,0,0,0,2.5431,2.5439,2.5436,2.5441,2.5443,2.5447,2.5442,2.5449,2.5449,2.5454,2.5451,2.5452,2.5498,2.5499,2.5525,2.5537,0,0,0,2.5434,2.544,2.5442,2.5442,2.5444,2.5447,2.5446,2.5449,2.5448,2.5451,2.5452,2.5498,2.5499,2.5523,2.5535,2.5553,0,0,0,2.544,2.5465,2.5442,2.547,2.5444,2.5464,2.5446,2.5459,2.5466,2.5452,2.5498,2.5499,2.5523,2.5533,2.5551,2.5569,2.5578,0,0,2.5476,2.547,2.5485,2.5465,2.5491,2.5463,2.5493,2.549,2.5482,2.5494,2.5495,2.5525,2.5535,2.5553,2.5623,2.563,0,0,0,2.5499,2.551,2.5516,2.5523,2.5523,2.5524,2.5516,2.5515,2.5525,2.549,2.5537,2.5542,2.5552,2.556,2.5566,2.5574,2.5503,2.5503,2.5503,2.5562,2.5552,2.5577,2.5568,2.5576,2.5569,2.5574,2.5572,2.5558,2.557,2.5573,2.5617,2.5627,2.5631,2.564,2.5582,2.5582,2.5582,2.5582,2.5614,2.5628,2.5612,2.5631,2.5621,2.5636,2.5631,2.5621,2.5634,2.5613,2.5621,2.5599,2.5639,2.5646,2.5584,2.5584,2.5584,2.5583,2.5583,2.5653,2.5658,2.5658,2.567,2.568,2.567,2.5684,2.5673,2.5664,2.5672,2.5675,2.5674,2.5672,2.5674,2.5675,2.5675,2.5675,2.5675,2.5675,2.5693,2.5692,2.5706,2.571,2.5714,2.5719,2.5714,2.5718,2.5719,2.5711,2.5711,2.5696,2.5645,2.5632,2.5677,2.5677,2.5677,2.5676,2.5676,2.5748,2.5735,2.5755,2.576,2.5764,2.5776,2.5764,2.5773,2.5775,2.5782,2.5767,2.5731,2.5722,2.5718,2.5707,2.5769,2.5769,2.5769,2.5769,2.578,2.5776,2.5796,2.5804,2.5812,2.5804,2.5827,2.5825,2.5819,2.582,2.581,2.5795,2.5791,2.5785,2.5779,2.5768,2.5845,2.5845,2.5845,2.5814,2.581,2.5832,2.5828,2.5832,2.5836,2.5858,2.5868,2.5859,2.5848,2.582,2.5817,2.5793,2.5785,2.5772,2.5763,2.5743,0,0]}]]